This is the latest recevied weather packets stored in our database for station/object N3UJJ-1. If no packets are shown the sender has not sent any weather packets the latest 10 day(s).
| Time | Temp. | Humidity | Pressure | Rain* | Wind** | Luminosity | Snow |
|---|---|---|---|---|---|---|---|
| 1778146290 | 12.22° C | 94% | 1010.8 hPa | 0 mm | - | - | - |
| 1778145390 | 12.22° C | 93% | 1011 hPa | 0 mm | - | - | - |
| 1778144490 | 12.22° C | 94% | 1010.7 hPa | 0 mm | - | - | - |
| 1778143590 | 12.22° C | 95% | 1010.7 hPa | 0 mm | - | - | - |
| 1778142690 | 12.78° C | 95% | 1010.8 hPa | 0 mm | - | - | - |
| 1778141789 | 12.78° C | 95% | 1010.4 hPa | 0 mm | - | - | - |
| 1778140889 | 12.78° C | 95% | 1010 hPa | 0 mm | - | - | - |
| 1778139989 | 13.33° C | 95% | 1009.9 hPa | 0 mm | - | - | - |
| 1778139089 | 13.33° C | 95% | 1009.6 hPa | 0 mm | - | - | - |
| 1778138189 | 13.33° C | 95% | 1009.6 hPa | 0 mm | - | - | - |
| 1778137288 | 13.33° C | 95% | 1009.6 hPa | 0.25 mm | - | - | - |
| 1778136388 | 13.89° C | 95% | 1009.8 hPa | 0.25 mm | - | - | - |
| 1778135488 | 13.89° C | 95% | 1009.3 hPa | 2.03 mm | - | - | - |
| 1778134588 | 14.44° C | 95% | 1008.8 hPa | 2.03 mm | - | - | - |
| 1778133688 | 15° C | 95% | 1008.9 hPa | 3.81 mm | - | - | - |
| 1778132787 | 15° C | 95% | 1009.4 hPa | 3.81 mm | - | - | - |
| 1778131887 | 15° C | 94% | 1009.1 hPa | 2.03 mm | - | - | - |
| 1778130987 | 15.56° C | 92% | 1009.2 hPa | 2.03 mm | - | - | - |
| 1778130087 | 16.11° C | 90% | 1009.8 hPa | 0 mm | - | - | - |
| 1778129187 | 16.67° C | 89% | 1009.8 hPa | 0 mm | - | - | - |
| 1778128287 | 17.22° C | 90% | 1009.7 hPa | 0 mm | - | - | - |
| 1778127386 | 17.78° C | 92% | 1009.2 hPa | 0 mm | - | - | - |
| 1778126486 | 18.33° C | 93% | 1008.9 hPa | 0 mm | - | - | - |
| 1778125586 | 18.33° C | 92% | 1008.9 hPa | 0 mm | - | - | - |
| 1778124686 | 18.33° C | 92% | 1008.7 hPa | 0 mm | - | - | - |
* Rain latest hour (hover to see other rain measurements)
** Current wind speed in m/s (hover to see current wind gust speed)